Weather History for Kansas City, MO

Change the Weather History Date:

Monday, December 31, 2012

  Actual Average Record
Temperature  
Mean Temperature 30 °F -  
Max Temperature 37 °F 38 °F 66 °F (2011)
Min Temperature 24 °F 21 °F 3 °F (2000)
Degree Days  
Heating Degree Days 34    
Moisture  
Dew Point 26 °F    
Average Humidity 80    
Maximum Humidity 96    
Minimum Humidity 48    
Precipitation  
Precipitation 0.02 in - - ()
Sea Level Pressure  
Sea Level Pressure 30.12 in    
Wind  
Wind Speed 7 mph (NNE)    
Max Wind Speed 14 mph    
Max Gust Speed -    
Visibility 4 miles    
Events Fog , Snow    
Averages and records for this station are not official NWS values.
T = Trace of Precipitation, MM = Missing Value Source: NWS Daily Summary

Daily Weather History Graph

Daily Weather History Graph

Search for Another Location

Airport:

Trip Planner

Search our weather history database for the weather conditions in past years. The results will help you decide how hot, cold, wet, or windy it might be!

Date:

Astronomy

Dec. 31, 2012 Rise Set
Actual Time 7:37 AM CST 5:05 PM CST
Civil Twilight 7:07 AM CST 5:35 PM CST
Nautical Twilight 6:34 AM CST 6:09 PM CST
Astronomical Twilight 6:01 AM CST 6:41 PM CST
Moon 8:35 PM CST (12/31) 9:21 AM CST (12/31)
Length of Visible Light 10h 28m
Length of Day
9h 28m
Waning Gibbous, 90% of the Moon is Illuminated
Dec 31
Waning Gibbous
Jan 4
Last Quarter
Jan 11
New
Jan 18
First Quarter
Jan 26
Full

Hourly Weather History & Observations

Time (CST) Temp. Windchill Dew Point Humidity Pressure Visibility Wind Dir Wind Speed Gust Speed Precip Events Conditions
12:54 AM 37.9 °F 30.0 °F 19.9 °F 48% 30.14 in 10.0 mi SSW 12.7 mph - N/A   Clear
1:54 AM 37.9 °F 31.5 °F 19.9 °F 48% 30.15 in 10.0 mi SW 9.2 mph - N/A   Clear
2:54 AM 37.9 °F 30.5 °F 19.9 °F 48% 30.15 in 10.0 mi SW 11.5 mph - N/A   Mostly Cloudy
3:54 AM 37.9 °F 32.1 °F 19.9 °F 48% 30.13 in 10.0 mi SW 8.1 mph - N/A   Partly Cloudy
4:54 AM 37.9 °F 31.5 °F 21.0 °F 51% 30.13 in 10.0 mi SW 9.2 mph - N/A   Overcast
5:54 AM 37.0 °F 32.4 °F 21.0 °F 52% 30.12 in 10.0 mi SW 5.8 mph - N/A   Scattered Clouds
6:54 AM 37.0 °F 34.5 °F 21.9 °F 54% 30.11 in 10.0 mi SSW 3.5 mph - N/A   Overcast
7:54 AM 37.0 °F 31.6 °F 23.0 °F 57% 30.13 in 10.0 mi SSW 6.9 mph - N/A   Overcast
8:31 AM 35.6 °F 26.6 °F 26.6 °F 70% 30.12 in 1.8 mi SSW 13.8 mph - 0.00 in Snow Light Snow
8:39 AM 33.8 °F 24.3 °F 28.4 °F 81% 30.11 in 0.8 mi SSW 13.8 mph - 0.00 in Snow Light Snow
8:54 AM 34.0 °F 26.0 °F 28.9 °F 82% 30.14 in 0.5 mi SSW 10.4 mph - 0.00 in Snow Snow
9:02 AM 33.8 °F 27.0 °F 30.2 °F 87% 30.13 in 0.5 mi SSW 8.1 mph - 0.00 in Fog , Snow Snow
9:31 AM 33.8 °F 28.6 °F 30.2 °F 87% 30.14 in 0.8 mi SSW 5.8 mph - 0.00 in Snow Light Snow
9:41 AM 33.8 °F 28.6 °F 30.2 °F 87% 30.15 in 0.8 mi SSW 5.8 mph - 0.00 in Snow Light Snow
9:54 AM 33.1 °F 30.0 °F 30.9 °F 92% 30.16 in 0.5 mi SSW 3.5 mph - 0.01 in Fog , Snow Snow
10:02 AM 33.8 °F - 30.2 °F 87% 30.14 in 0.5 mi Calm Calm - 0.00 in Fog , Snow Snow
10:17 AM 33.8 °F - 30.2 °F 87% 30.15 in 0.5 mi Calm Calm - 0.00 in Fog , Snow Snow
10:54 AM 33.1 °F - 32.0 °F 96% 30.17 in 0.5 mi Calm Calm - 0.01 in Fog , Snow Snow
11:03 AM 33.8 °F - 30.2 °F 87% 30.15 in 0.5 mi Calm Calm - 0.00 in Fog , Snow Snow
11:07 AM 33.8 °F - 32.0 °F 93% 30.15 in 0.8 mi Calm Calm - 0.00 in Snow Light Snow
11:33 AM 33.8 °F - 30.2 °F 87% 30.14 in 0.8 mi Calm Calm - 0.00 in Snow Light Snow
11:54 AM 33.1 °F - 30.9 °F 92% 30.14 in 1.2 mi Calm Calm - 0.00 in Snow Light Snow
12:06 PM 33.8 °F - 30.2 °F 87% 30.12 in 3.0 mi Calm Calm - 0.00 in Snow Light Snow
12:15 PM 33.8 °F - 30.2 °F 87% 30.10 in 4.0 mi Calm Calm - 0.00 in Snow Light Snow
12:23 PM 33.8 °F - 30.2 °F 87% 30.09 in 2.5 mi Calm Calm - 0.00 in Snow Light Snow
12:28 PM 33.8 °F - 30.2 °F 87% 30.09 in 1.8 mi Calm Calm - 0.00 in Snow Light Snow
12:35 PM 33.8 °F 29.6 °F 30.2 °F 87% 30.09 in 1.2 mi North 4.6 mph - 0.00 in Snow Light Snow
12:54 PM 33.1 °F 28.7 °F 28.9 °F 85% 30.10 in 1.0 mi North 4.6 mph - 0.00 in Snow Light Snow
1:02 PM 33.8 °F 30.8 °F 30.2 °F 87% 30.08 in 1.8 mi North 3.5 mph - 0.00 in Snow Light Snow
1:10 PM 33.8 °F 28.6 °F 30.2 °F 87% 30.07 in 2.5 mi NNE 5.8 mph - 0.00 in Snow Light Snow
1:14 PM 33.8 °F 29.6 °F 30.2 °F 87% 30.08 in 3.0 mi NNE 4.6 mph - 0.00 in Snow Light Snow
1:25 PM 33.8 °F 28.6 °F 28.4 °F 81% 30.07 in 4.0 mi NNE 5.8 mph - 0.00 in   Overcast
1:30 PM 33.8 °F 28.6 °F 30.2 °F 87% 30.07 in 5.0 mi NE 5.8 mph - 0.00 in   Overcast
1:54 PM 33.1 °F 26.9 °F 30.9 °F 92% 30.08 in 4.0 mi NNE 6.9 mph - 0.00 in Snow Light Snow
2:07 PM 33.8 °F 28.6 °F 30.2 °F 87% 30.07 in 2.0 mi NE 5.8 mph - 0.00 in Snow Light Snow
2:11 PM 33.8 °F 27.7 °F 30.2 °F 87% 30.06 in 1.8 mi NE 6.9 mph - 0.00 in Snow Light Snow
2:47 PM 33.8 °F 27.7 °F 30.2 °F 87% 30.06 in 1.2 mi NNE 6.9 mph - 0.00 in Snow Light Snow
2:54 PM 33.1 °F 26.1 °F 30.0 °F 89% 30.07 in 1.0 mi NNE 8.1 mph - 0.00 in Snow Light Snow
3:22 PM 32.0 °F 23.0 °F 28.4 °F 87% 30.07 in 2.0 mi NNE 11.5 mph - 0.00 in Snow Light Snow
3:29 PM 32.0 °F 23.6 °F 28.4 °F 87% 30.06 in 1.2 mi NNE 10.4 mph - 0.00 in Snow Light Snow
3:39 PM 32.0 °F 24.8 °F 28.4 °F 87% 30.07 in 1.0 mi NNE 8.1 mph - 0.00 in Snow Light Snow
3:46 PM 32.0 °F 23.6 °F 28.4 °F 87% 30.07 in 0.8 mi NNE 10.4 mph - 0.00 in Snow Light Snow
3:54 PM 32.0 °F 23.0 °F 28.0 °F 85% 30.09 in 1.0 mi NNE 11.5 mph - 0.00 in Snow Light Snow
4:13 PM 30.2 °F 21.3 °F 28.4 °F 93% 30.07 in 2.0 mi NNE 10.4 mph - 0.00 in Snow Light Snow
4:54 PM 30.0 °F 20.0 °F 26.1 °F 85% 30.10 in 2.0 mi NNE 12.7 mph - 0.00 in Snow Light Snow
5:39 PM 28.4 °F 20.4 °F 24.8 °F 86% 30.10 in 2.0 mi NNE 8.1 mph - 0.00 in Snow Light Snow
5:49 PM 28.4 °F 19.7 °F 24.8 °F 86% 30.10 in 2.0 mi NNE 9.2 mph - 0.00 in Snow Light Snow
5:54 PM 28.0 °F 19.3 °F 24.1 °F 85% 30.14 in 2.0 mi North 9.2 mph - 0.00 in Snow Light Snow
6:01 PM 26.6 °F 17.5 °F 23.0 °F 86% 30.11 in 3.0 mi NNE 9.2 mph - 0.01 in Snow Light Snow
6:54 PM 26.6 °F 17.5 °F 21.2 °F 80% 30.13 in 2.0 mi NNE 9.2 mph - N/A Snow Light Snow
7:23 PM 26.6 °F 17.5 °F 21.2 °F 80% 30.14 in 1.8 mi NNE 9.2 mph - 0.00 in Snow Light Snow
7:54 PM 26.1 °F 17.6 °F 21.9 °F 84% 30.16 in 3.0 mi NNE 8.1 mph - 0.00 in Snow Light Snow
8:01 PM 26.6 °F 17.5 °F 21.2 °F 80% 30.14 in 4.0 mi NNE 9.2 mph - 0.00 in Snow Light Snow
8:14 PM 26.6 °F 16.2 °F 21.2 °F 80% 30.14 in 2.0 mi NNE 11.5 mph - 0.00 in Snow Light Snow
8:30 PM 24.8 °F 14.6 °F 19.4 °F 80% 30.14 in 3.0 mi NNE 10.4 mph - 0.00 in Snow Light Snow
8:54 PM 24.8 °F 14.6 °F 19.4 °F 80% 30.15 in 5.0 mi NNE 10.4 mph - N/A Snow Light Snow
9:12 PM 24.8 °F 16.9 °F 19.4 °F 80% 30.15 in 5.0 mi NNE 6.9 mph - N/A Snow Light Snow
9:54 PM 25.0 °F 17.1 °F 19.0 °F 78% 30.18 in 10.0 mi NNE 6.9 mph - 0.00 in   Overcast
10:47 PM 24.8 °F 15.3 °F 17.6 °F 74% 30.17 in 10.0 mi NNE 9.2 mph - N/A   Overcast
10:54 PM 24.1 °F 14.4 °F 18.0 °F 77% 30.20 in 10.0 mi NNE 9.2 mph - N/A   Overcast
11:30 PM 24.8 °F 15.3 °F 17.6 °F 74% 30.19 in 8.0 mi NNE 9.2 mph - N/A   Overcast
11:46 PM 24.8 °F 16.9 °F 17.6 °F 74% 30.19 in 7.0 mi NNE 6.9 mph - N/A   Overcast
11:54 PM 24.1 °F 15.2 °F 18.0 °F 77% 30.21 in 9.0 mi NNE 8.1 mph - N/A   Overcast